Location: Capannuccia
(43.7000°N, 11.3000°E)
Time: 00:27:34
(UTC+00:00)

CZ-2D R/B - Visible Passes

Search period start: 14 June 2021 00:00
Search period end: 24 June 2021 00:00
Orbit: 791 x 845 km, 98.7° (Epoch: 13 June)

Date Brightness Start Highest point End Pass type
(mag) Time Alt. Az. Time Alt. Az. Time Alt. Az.
14 Jun 2.8 00:22:53 10° NNE 00:27:52 44° E 00:29:56 30° SSE visible
14 Jun 3.4 02:03:27 10° N 02:07:41 26° WNW 02:11:15 13° WSW visible
15 Jun 3.4 00:01:58 10° NE 00:06:27 28° E 00:08:23 23° SE visible
15 Jun 2.9 01:41:47 10° N 01:46:35 38° WNW 01:49:42 19° SW visible
15 Jun 3.9 23:41:23 10° NE 23:44:58 18° E 23:46:50 16° ESE visible
16 Jun 2.3 01:20:16 10° N 01:25:23 58° WNW 01:28:09 27° SW visible
16 Jun 4.4 23:21:42 10° ENE 23:23:24 11° E 23:25:06 10° ESE visible
17 Jun 2.0 00:58:54 10° NNE 01:04:09 88° WNW 01:06:36 33° SSW visible
17 Jun 4.2 02:41:03 10° NNW 02:43:25 13° WNW 02:45:46 10° W visible
18 Jun 2.3 00:37:40 10° NNE 00:42:50 60° ESE 00:45:03 33° SSE visible
18 Jun 3.8 02:18:46 10° NNW 02:22:25 20° WNW 02:26:04 10° WSW visible
19 Jun 3.0 00:16:36 10° NNE 00:21:28 38° E 00:23:29 28° SE visible
19 Jun 3.3 01:56:57 10° N 02:01:21 29° WNW 02:04:48 15° WSW visible
19 Jun 3.6 23:55:45 10° NE 00:00:01 25° E 00:01:56 20° SE visible
20 Jun 2.7 01:35:19 10° N 01:40:14 43° WNW 01:43:15 21° SW visible
20 Jun 4.1 23:35:19 10° NE 23:38:30 16° E 23:40:22 14° ESE visible
21 Jun 2.2 01:13:51 10° N 01:19:01 66° WNW 01:21:41 29° SW visible
22 Jun 2.0 00:52:31 10° NNE 00:57:46 82° ESE 01:00:08 34° S visible
22 Jun 4.1 02:34:17 10° NNW 02:37:08 15° WNW 02:39:59 10° W visible
23 Jun 2.5 00:31:20 10° NNE 00:36:26 53° E 00:38:34 32° SSE visible
23 Jun 3.6 02:12:11 10° NNW 02:16:07 22° WNW 02:19:53 11° WSW visible
